Location: Bakov nad Jizerou
(50.4784°N, 14.9394°E)
Time: 20:14:18
(UTC+00:00)

SL-8 R/B - Pass Details

Date: 27 October 2021
Orbit: 656 x 667 km, 48.4° (Epoch: 03 December)

Event Time Altitude Azimuth Distance (km) Brightness Sun altitude
Rises 19:20:03 0° 281° (W) 2,990 8.1 -34.4°
Reaches altitude 10° 19:22:34 10° 272° (W) 2,078 6.9 -34.7°
Enters shadow 19:24:12 19° 259° (W) 1,559 6.0 -35.0°
